Regional Weather Roundup
Issued by NWS

Home | Current Version | Previous Version | Text Only | Print | Product List | Glossary Off
Versions: 1 2 3 4 5 6 7 8 9 10 11 12 13 14 15 16 17 18 19 20 21 22 23 24 25 26 27 28 29 30 31 32 33 34 35 36 37 38 39 40 41 42 43 44 45 46 47 48 49 50

000
ASUS43 KLOT 300000
RWRIL

ILLINOIS REGIONAL WEATHER ROUNDUP
NATIONAL WEATHER SERVICE CHICAGO/ROMEOVILLE IL
700 PM CDT FRI MAY 29 2015

NOTE: "FAIR" INDICATES FEW OR NO CLOUDS BELOW 12,000 FEET WITH NO
SIGNIFICANT WEATHER AND/OR OBSTRUCTIONS TO VISIBILITY.

* THESE STATIONS ARE NOT UNDER NWS QUALITY CONTROL. THEY ALSO MAY NOT
  REPORT WEATHER SUCH AS PRECIPITATION OR FOG.

ILZ001-002-007-009-015-016-024-300100-
NORTHWEST ILLINOIS

CITY           SKY/WX    TMP DP  RH WIND       PRES   REMARKS
MOLINE         CLOUDY    75  63  66 W6        29.90R
6HR MIN TEMP:  75; 6HR MAX TEMP:  82;

STERLING*      PTSUNNY   79  66  65 W9        29.90R HX  81
$$

ILZ003-004-008-010-011-017-018-300100-
NORTH CENTRAL ILLINOIS

CITY           SKY/WX    TMP DP  RH WIND       PRES   REMARKS
ROCKFORD       CLOUDY    70  65  84 W7        29.93S
6HR MIN TEMP:  69; 6HR MAX TEMP:  81; 6HR PCP:  0.12;

$$

ILZ005-006-012>014-019>023-300100-
NORTHEAST ILLINOIS

CITY           SKY/WX    TMP DP  RH WIND       PRES   REMARKS
CHICAGO-OHARE  PTSUNNY   80  62  54 SW10      29.90R HX  81
6HR MIN TEMP:  76; 6HR MAX TEMP:  81; 6HR PCP:  0.03;

CHICAGO-MIDWAY PTSUNNY   82  66  58 SW12      29.90R HX  84
6HR MIN TEMP:  78; 6HR MAX TEMP:  84; 6HR PCP:  0.01;

AURORA         MOSUNNY   80  63  55 SW9       29.92R HX  81
6HR MIN TEMP:  78; 6HR MAX TEMP:  83; 6HR PCP: TRACE;

WAUKEGAN       MOSUNNY   77  66  68 VRB5      29.89R
6HR MIN TEMP:  69; 6HR MAX TEMP:  81; 6HR PCP:  0.01;

DUPAGE AIRPORT MOSUNNY   79  63  57 SW12      29.91R HX  80
6HR MIN TEMP:  76; 6HR MAX TEMP:  82; 6HR PCP: TRACE;

WHEELING       MOSUNNY   81  61  50 SW9       29.91R HX  82
6HR MIN TEMP:  75; 6HR MAX TEMP:  83; 6HR PCP:  0.04;

NORTHERLY ISL    N/A     81  63  54 SW6         N/A  HX  82
$$

LMZ740>746-300100-
SOUTHERN LAKE MICHIGAN

STATION/POSITION SKY/WX   TEMP    WIND        PRES    VSBY  WAVE
                          AIR SEA DIR/SP/G                  HT/PER
                          (F)     (DEG/KT/KT) (MB)    (MI)  (FT/S)
SOUTHERN BUOY              47 38  130/ 10/ 10 1012.7          0
HARRISON CRIB              78     200/ 15/ 21   N/A
BURNHAM HARBOR             81     210/  8/ 14   N/A
CALUMET HARBOR             78     210/  5/  8   N/A
BURNS HARBOR               82     220/ 13/ 19 1013.2R
MICHIGAN CITY              82     190/ 14/ 18   N/A
MICHIGAN CITY 6N           71 56  220/ 10/ 14   N/A           1
ST. JOSEPH                 72 61  190/  6/  6   N/A           1
$$

ILZ025>027-034>036-040-047-049-050-058-095>099-300100-
WEST-CENTRAL ILLINOIS

CITY           SKY/WX    TMP DP  RH WIND       PRES   REMARKS
QUINCY         CLOUDY    73  64  73 SW8       29.95R
$$

ILZ028>032-037-038-041>044-048-051>054-059>061-300100-
CENTRAL ILLINOIS

CITY           SKY/WX    TMP DP  RH WIND       PRES   REMARKS
BLOOMINGTON    CLOUDY    70  66  88 S8        29.98R
DECATUR        CLOUDY    72  63  73 NW8       29.99R
PEORIA         CLOUDY    81  66  60 SW8       29.94R HX  83
6HR MIN TEMP:  81; 6HR MAX TEMP:  85;

SPRINGFIELD    PTSUNNY   73  69  87 S3        29.97R
6HR MIN TEMP:  70; 6HR MAX TEMP:  86; 6HR PCP:  0.42;

TAYLORVILLE    NOT AVBL
$$

ILZ033-039-045-046-055>057-062-063-300100-
EAST-CENTRAL ILLINOIS

CITY           SKY/WX    TMP DP  RH WIND       PRES   REMARKS
CHAMPAIGN      PTSUNNY   82  65  56 S12       29.98R HX  84
MATTOON        LGT RAIN  71  66  84 SW13      29.99S
$$

ILZ079-100>102-300100-
SOUTHWEST ILLINOIS

CITY           SKY/WX    TMP DP  RH WIND       PRES   REMARKS
BELLEVILLE     CLOUDY    70  70 100 SE5       29.98R
CAHOKIA*       CLOUDY    75  70  84 S3        29.98R
$$

ILZ064>066-069>071-074>076-080>082-084>086-088>090-092>094-300100-
SOUTH-CENTRAL ILLINOIS

CITY           SKY/WX    TMP DP  RH WIND       PRES   REMARKS
CARBONDALE     MOSUNNY   81  66  60 S9        29.99R HX  83
6HR MIN TEMP:  81; 6HR MAX TEMP:  85;

MT. VERNON     CLOUDY    68  63  83 CALM      30.04R
$$

ILZ067-068-072-073-078-083-087-091-300100-
SOUTHEAST ILLINOIS

CITY           SKY/WX    TMP DP  RH WIND       PRES   REMARKS
$$

ABBREVIATIONS USED IN REMARKS
   TC - TEMPERATURE IN CELSIUS
  WCI - WIND CHILL INDEX
   HX - HEAT INDEX
  VSB - VISIBILITY
$$



USA.gov is the U.S. government's official web portal to all federal, state and local government web resources and services.